Regional Weather Roundup
Issued by NWS Cleveland, OH

Home | Current Version | Previous Version | Graphics & Text | Print | Product List | Glossary On
Versions: 1 2 3 4 5 6 7 8 9 10 11 12 13 14 15 16 17 18 19 20 21 22 23 24 25 26 27 28 29 30 31 32 33 34 35 36 37 38 39 40 41 42 43 44 45 46 47 48 49 50
000
ASUS41 KCLE 041602
RWRCLE
OHIO REGIONAL WEATHER ROUNDUP
NATIONAL WEATHER SERVICE CLEVELAND, OH
1200 PM EDT SAT JUL 04 2015

NOTE: "FAIR" INDICATES FEW OR NO CLOUDS BELOW 12,000 FEET WITH NO
SIGNIFICANT WEATHER AND/OR OBSTRUCTIONS TO VISIBILITY.

OHZ001>008-015>018-024>027-034-035-043-044-041700-
   NORTHWEST OHIO

CITY           SKY/WX    TMP DP  RH WIND       PRES   REMARKS
DEFIANCE       SUNNY     76  56  49 VRB3      30.01R
FINDLAY        SUNNY     74  55  51 CALM      30.00S
TOLEDO EXPRESS SUNNY     75  53  46 VRB5      30.00R
TOLEDO EXEC    SUNNY     75  51  43 CALM      30.01R
LIMA           SUNNY     72  56  57 N8        30.02R
$$

OHZ009>014-019>023-028>033-038-089-041700-
   NORTHEAST OHIO

CITY           SKY/WX    TMP DP  RH WIND       PRES   REMARKS
CLE-HOPKINS    SUNNY     72  52  49 N7        30.02R
CLE-LAKEFRONT  SUNNY     71  58  63 N8        29.99S
CUY CO. ARPT   SUNNY     72  57  60 N9        30.01R
LORAIN-ELYRIA  SUNNY     71  55  56 N6        30.01S
ASHTABULA      SUNNY     72  52  49 N7        30.00R
AKRON-CANTON   MOSUNNY   74  57  55 N7        29.99R
WOOSTER        SUNNY     73  55  53 NW5       30.01R
MANSFIELD      SUNNY     72  55  55 N7        30.02R
YOUNGSTOWN     MOSUNNY   74  56  53 NW8       29.98R
$$

OHZ042-051>053-060>062-070>072-077>081-041700-
  SOUTHWEST OHIO

CITY           SKY/WX    TMP DP  RH WIND       PRES   REMARKS
CINC-COVINGTON PTSUNNY   75  60  59 CALM      30.03R
CINC-LUNKEN    MOSUNNY   75  61  61 VRB5      30.02R
HAMILTON       SUNNY     76  59  55 NE3       30.03R
DAYTON         MOSUNNY   75  57  53 N7        30.04R
WRIGHT-PAT AFB SUNNY     73  55  53 N7        30.02R
DAYTON GENERAL SUNNY     74  55  51 N6        30.02R
WILMINGTON     SUNNY     74  49  41 NW7       30.02R
$$

OHZ036-037-039>041-045>050-054>059-063>069-073>076-082>088-041700-
  CENTRAL AND SOUTHEAST OHIO

CITY           SKY/WX    TMP DP  RH WIND       PRES   REMARKS
COLUMBUS       MOSUNNY   73  59  61 N6        29.99S
OSU AIRPORT    SUNNY     73  55  53 NW7       30.00S
BOLTON FIELD   SUNNY     72  57  60 NW7       30.01S
RICKENBACK AFB NOT AVBL
NEWARK         SUNNY     74  59  59 CALM      29.99S
MARION         SUNNY     73  55  53 N7        30.01S
LANCASTER      SUNNY     75  62  64 VRB3      30.00S
ZANESVILLE     NOT AVBL
NEW PHILLY     SUNNY     74  60  61 VRB6      29.99R
$$


USA.gov is the U.S. government's official web portal to all federal, state and local government web resources and services.